User: anonymous   Login
Location: Unspecified
(0.0000°N, 0.0000°E)
Time: 13:52:06
(UTC+01:00)
Language:

Landsat 4 - Orbit

View from above orbital plane
View from above orbital plane
View from above satellite
View from above satellite

Ground track
Ground track

The orbit data is extracted from the following two-line orbital elements,

1 13367U 82072A   17018.49181073  .00000534  00000-0  32197-4 0  9997
2 13367  98.2291 168.6311 0013167 355.7246  48.3901 15.15603670862352
Epoch (UTC): 18 January 2017 11:48:12
Eccentricity: 0.0013167
inclination: 98.2291°
perigee height: 510 km
apogee height: 528 km
right ascension of ascending node: 168.6311°
argument of perigee: 355.7246°
revolutions per day: 15.15603670
mean anomaly at epoch: 48.3901°
orbit number at epoch: 86235

The dashed part of the orbit path shows where the satellite is in the earth's shadow,  

DLR